This is the latest recevied weather packets stored in our database for station/object KL1IO. If no packets are shown the sender has not sent any weather packets the latest 1 day(s).
| Time | Temp. | Humidity | Pressure | Rain* | Wind** | Luminosity | Snow |
|---|---|---|---|---|---|---|---|
| 1778008051 | 5° C | 98% | 1010.7 hPa | 0 mm | 0 m/s | 149 W/m² | - |
| 1778007751 | 5° C | 98% | 1010.8 hPa | 0 mm | 0 m/s | 150 W/m² | - |
| 1778007448 | 5° C | 97% | 1010.9 hPa | 0 mm | 0 m/s | 154 W/m² | - |
| 1778007144 | 5° C | 98% | 1010.7 hPa | 0 mm | 0 m/s | 157 W/m² | - |
| 1778006840 | 5° C | 99% | 1010.8 hPa | 0 mm | 0 m/s | 147 W/m² | - |
| 1778006538 | 5° C | 99% | 1010.8 hPa | 0 mm | 0 m/s | 139 W/m² | - |
| 1778006234 | 5° C | 99% | 1010.9 hPa | 0 mm | 0 m/s | 129 W/m² | - |
| 1778005932 | 5.56° C | 99% | 1010.8 hPa | 0 mm | 0 m/s | 122 W/m² | - |
| 1778005628 | 5° C | 99% | 1011 hPa | 0 mm | 0 m/s | 128 W/m² | - |
| 1778005325 | 5° C | 99% | 1010.8 hPa | 0 mm | 0 m/s | 139 W/m² | - |
| 1778005021 | 5° C | 99% | 1010.8 hPa | 0 mm | 0 m/s | 136 W/m² | - |
| 1778004720 | 5° C | 99% | 1010.7 hPa | 0 mm | 0 m/s | 128 W/m² | - |
| 1778004415 | 5° C | 99% | 1010.7 hPa | 0 mm | 0.45 m/s, 227° | 123 W/m² | - |
| 1778004113 | 5° C | 99% | 1010.8 hPa | 0 mm | 0 m/s | 141 W/m² | - |
| 1778003808 | 5° C | 99% | 1010.7 hPa | 0 mm | 0 m/s | 140 W/m² | - |
| 1778003505 | 5° C | 99% | 1010.7 hPa | 0 mm | 0 m/s | 145 W/m² | - |
| 1778003202 | 4.44° C | 99% | 1010.8 hPa | 0 mm | 0 m/s | 132 W/m² | - |
| 1778002898 | 5° C | 99% | 1010.6 hPa | 0 mm | 0 m/s | 142 W/m² | - |
| 1778002595 | 5° C | 99% | 1010.7 hPa | 0 mm | 0 m/s | 147 W/m² | - |
| 1778002292 | 5° C | 99% | 1010.6 hPa | 0 mm | 0 m/s | 138 W/m² | - |
| 1778001989 | 4.44° C | 99% | 1010.8 hPa | 0 mm | 0 m/s | 138 W/m² | - |
| 1778001686 | 3.89° C | 99% | 1010.6 hPa | 0 mm | 0 m/s | 138 W/m² | - |
| 1778001380 | 3.89° C | 99% | 1010.7 hPa | 0 mm | 0 m/s | 129 W/m² | - |
| 1778001078 | 3.89° C | 99% | 1010.5 hPa | 0 mm | 0 m/s | 167 W/m² | - |
| 1778000775 | 3.89° C | 99% | 1010.5 hPa | 0 mm | 0 m/s | 166 W/m² | - |
* Rain latest hour (hover to see other rain measurements)
** Current wind speed in m/s (hover to see current wind gust speed)